Location: Grambois
(43.7619°N, 5.5873°E)
Time: 17:40:31
(UTC+00:00)

STARLINK-1308 - Pass Details

Date: 07 June 2020
Orbit: 548 x 551 km, 53.0° (Epoch: 09 July)

Event Time Altitude Azimuth Distance (km) Brightness Sun altitude
Exits shadow 01:39:39 38° 234° (SW) 843 4.1 -17.7°
Maximum altitude 01:41:10 89° 140° (SE) 554 3.5 -17.6°
Drops below altitude 10° 01:45:19 10° 55° (NE) 1,826 7.3 -17.2°
Sets 01:47:34 0° 56° (NE) 2,723 8.4 -17.0°
